This is the latest recevied weather packets stored in our database for station/object N0HEQ. If no packets are shown the sender has not sent any weather packets the latest 10 day(s).
| Time | Temp. | Humidity | Pressure | Rain* | Wind** | Luminosity | Snow |
|---|---|---|---|---|---|---|---|
| 1777773777 | 17.22° C | 21% | 1019.5 hPa | 0 mm | - | 1 W/m² | - |
| 1777773473 | 17.22° C | 20% | 1019.6 hPa | 0 mm | - | 1 W/m² | - |
| 1777773170 | 17.78° C | 18% | 1019.5 hPa | 0 mm | - | 3 W/m² | - |
| 1777772865 | 18.33° C | 18% | 1019.3 hPa | 0 mm | - | 4 W/m² | - |
| 1777772564 | 18.33° C | 18% | 1019.2 hPa | 0 mm | - | 6 W/m² | - |
| 1777772260 | 18.89° C | 17% | 1019.4 hPa | 0 mm | - | 8 W/m² | - |
| 1777771958 | 18.89° C | 16% | 1019.3 hPa | 0 mm | - | 10 W/m² | - |
| 1777771655 | 18.89° C | 15% | 1019 hPa | 0 mm | - | 13 W/m² | - |
| 1777771352 | 20° C | 15% | 1019.2 hPa | 0 mm | - | 16 W/m² | - |
| 1777771049 | 20° C | 14% | 1019.3 hPa | 0 mm | - | 21 W/m² | - |
| 1777770746 | 20° C | 13% | 1019.2 hPa | 0 mm | - | 24 W/m² | - |
| 1777770442 | 20.56° C | 13% | 1019.2 hPa | 0 mm | - | 26 W/m² | - |
| 1777770139 | 20.56° C | 13% | 1019.2 hPa | 0 mm | - | 31 W/m² | - |
| 1777769837 | 21.11° C | 13% | 1018.9 hPa | 0 mm | - | 33 W/m² | - |
| 1777769534 | 21.11° C | 12% | 1018.8 hPa | 0 mm | - | 53 W/m² | - |
| 1777769230 | 21.11° C | 12% | 1019.2 hPa | 0 mm | - | 62 W/m² | - |
| 1777768929 | 21.67° C | 12% | 1018.9 hPa | 0 mm | - | 68 W/m² | - |
| 1777768625 | 21.67° C | 12% | 1019 hPa | 0 mm | - | 74 W/m² | - |
| 1777768322 | 22.22° C | 12% | 1019.4 hPa | 0 mm | - | 83 W/m² | - |
| 1777768019 | 22.22° C | 11% | 1018.9 hPa | 0 mm | - | 95 W/m² | - |
| 1777767715 | 22.78° C | 12% | 1019.2 hPa | 0 mm | - | 109 W/m² | - |
| 1777767411 | 22.78° C | 12% | 1019 hPa | 0 mm | - | 125 W/m² | - |
| 1777767109 | 22.78° C | 11% | 1019.4 hPa | 0 mm | - | 143 W/m² | - |
| 1777766806 | 22.78° C | 12% | 1019.4 hPa | 0 mm | - | 155 W/m² | - |
| 1777766503 | 22.78° C | 12% | 1019.3 hPa | 0 mm | - | 169 W/m² | - |
* Rain latest hour (hover to see other rain measurements)
** Current wind speed in m/s (hover to see current wind gust speed)